timestamp,wind_dir_avg,wind_spd_avg,wind_spd_max_dir,wind_spd_gust,battery_voltage,lat,long
2022-08-24 00:04:00+00:00,167.0,6.71,172.0,7.6,12.49,47.59359,-54.27349
2022-08-24 00:14:01+00:00,167.0,7.23,169.0,8.72,12.49,47.59359,-54.27349
2022-08-24 00:24:01+00:00,160.0,9.44,158.0,10.46,12.49,47.59359,-54.27349
2022-08-24 00:34:01+00:00,162.0,10.31,162.0,11.85,12.49,47.59359,-54.27349
2022-08-24 00:44:01+00:00,162.0,10.81,171.0,12.32,12.49,47.59359,-54.27349
2022-08-24 00:54:01+00:00,161.0,10.39,163.0,11.59,12.49,47.59359,-54.27349
2022-08-24 01:04:01+00:00,160.0,9.56,159.0,10.93,12.49,47.59359,-54.27349
2022-08-24 01:14:00+00:00,164.0,9.93,163.0,11.3,12.41,47.59359,-54.27349
2022-08-24 01:24:00+00:00,169.0,10.64,169.0,12.32,12.41,47.59359,-54.27349
2022-08-24 01:34:00+00:00,169.0,11.39,166.0,13.44,12.41,47.59359,-54.27349
2022-08-24 01:44:00+00:00,162.0,11.02,158.0,12.15,12.41,47.59359,-54.27349
2022-08-24 01:54:00+00:00,159.0,8.87,156.0,10.78,12.41,47.59359,-54.27349
2022-08-24 02:04:00+00:00,164.0,9.54,168.0,10.42,12.41,47.59359,-54.27349
2022-08-24 02:14:00+00:00,169.0,11.01,172.0,12.56,12.41,47.59359,-54.27349
2022-08-24 02:24:00+00:00,159.0,11.28,159.0,13.4,12.41,47.59359,-54.27349
2022-08-24 02:34:00+00:00,160.0,10.0,160.0,11.55,12.41,47.59359,-54.27349
2022-08-24 02:44:00+00:00,148.0,9.12,138.0,11.05,12.41,47.59359,-54.27349
2022-08-24 02:54:00+00:00,143.0,8.67,145.0,10.0,12.41,47.59359,-54.27349
2022-08-24 03:04:00+00:00,161.0,6.93,169.0,7.89,12.41,47.59359,-54.27349
2022-08-24 03:14:00+00:00,138.0,7.37,150.0,9.12,12.41,47.59359,-54.27349
2022-08-24 03:24:00+00:00,130.0,5.22,128.0,6.8,12.41,47.59359,-54.27349
2022-08-24 03:34:00+00:00,130.0,3.96,141.0,5.12,12.41,47.59359,-54.27349
2022-08-24 03:44:00+00:00,158.0,3.69,176.0,5.72,12.41,47.59359,-54.27349
2022-08-24 03:54:00+00:00,138.0,6.12,166.0,8.84,12.41,47.59359,-54.27349
2022-08-24 04:04:00+00:00,147.0,6.61,161.0,8.31,12.41,47.59359,-54.27349
2022-08-24 04:14:00+00:00,158.0,6.59,156.0,7.84,12.41,47.59359,-54.27349
2022-08-24 04:24:00+00:00,166.0,4.89,166.0,6.46,12.41,47.59359,-54.27349
2022-08-24 04:34:00+00:00,159.0,10.0,163.0,12.46,12.41,47.59359,-54.27349
2022-08-24 04:44:00+00:00,163.0,12.58,161.0,15.47,12.41,47.59359,-54.27349
2022-08-24 04:54:00+00:00,168.0,11.56,170.0,12.57,12.41,47.59359,-54.27349
2022-08-24 05:04:00+00:00,170.0,13.08,172.0,15.3,12.41,47.59359,-54.27349
2022-08-24 05:14:00+00:00,165.0,11.71,158.0,13.36,12.33,47.59359,-54.27349
2022-08-24 05:24:00+00:00,165.0,11.19,172.0,13.31,12.33,47.59359,-54.27349
2022-08-24 05:34:00+00:00,165.0,11.4,166.0,13.49,12.33,47.59359,-54.27349
2022-08-24 05:44:00+00:00,177.0,10.11,173.0,12.38,12.33,47.59359,-54.27349
2022-08-24 05:54:00+00:00,175.0,9.77,178.0,11.82,12.33,47.59359,-54.27349
2022-08-24 06:04:00+00:00,177.0,7.94,179.0,8.73,12.33,47.59359,-54.27349
2022-08-24 06:14:00+00:00,204.0,10.42,207.0,11.52,12.41,47.59359,-54.27349
2022-08-24 06:24:00+00:00,209.0,9.04,213.0,9.98,12.41,47.59359,-54.27349
2022-08-24 06:34:00+00:00,212.0,7.75,213.0,9.17,12.41,47.59359,-54.27349
2022-08-24 06:44:00+00:00,210.0,8.33,207.0,9.27,12.41,47.59359,-54.27349
2022-08-24 06:54:00+00:00,209.0,7.98,212.0,9.0,12.41,47.59359,-54.27349
2022-08-24 07:04:00+00:00,214.0,8.52,214.0,9.25,12.41,47.59359,-54.27349
2022-08-24 07:14:00+00:00,209.0,8.03,206.0,8.85,12.41,47.59359,-54.27349
2022-08-24 07:24:00+00:00,208.0,7.43,213.0,8.33,12.41,47.59359,-54.27349
2022-08-24 07:34:00+00:00,210.0,7.92,203.0,8.72,12.41,47.59359,-54.27349
2022-08-24 07:44:00+00:00,206.0,8.21,208.0,9.31,12.41,47.59359,-54.27349
2022-08-24 07:54:00+00:00,204.0,9.01,205.0,10.03,12.41,47.59359,-54.27349
2022-08-24 08:04:00+00:00,208.0,8.72,202.0,11.65,12.41,47.59359,-54.27349
2022-08-24 08:14:00+00:00,207.0,8.78,209.0,9.65,12.33,47.59359,-54.27349
2022-08-24 08:24:00+00:00,208.0,9.27,208.0,9.99,12.33,47.59359,-54.27349
2022-08-24 08:34:00+00:00,210.0,8.42,211.0,9.46,12.33,47.59359,-54.27349
2022-08-24 08:44:00+00:00,209.0,8.26,209.0,9.23,12.33,47.59359,-54.27349
2022-08-24 08:54:00+00:00,207.0,7.73,207.0,8.75,12.33,47.59359,-54.27349
2022-08-24 09:04:00+00:00,211.0,8.08,214.0,8.93,12.33,47.59359,-54.27349
2022-08-24 09:14:00+00:00,210.0,8.65,212.0,9.71,12.33,47.59359,-54.27349
2022-08-24 09:24:00+00:00,211.0,8.9,212.0,10.01,12.33,47.59359,-54.27349
2022-08-24 09:34:00+00:00,210.0,8.92,209.0,10.04,12.33,47.59359,-54.27349
2022-08-24 09:44:00+00:00,210.0,9.05,210.0,10.26,12.33,47.59359,-54.27349
2022-08-24 09:54:00+00:00,208.0,9.5,209.0,10.62,12.33,47.59359,-54.27349
2022-08-24 10:04:00+00:00,204.0,8.09,202.0,9.09,12.33,47.59359,-54.27349
2022-08-24 10:14:00+00:00,208.0,7.6,207.0,8.5,12.41,47.59359,-54.27349
2022-08-24 10:24:00+00:00,208.0,8.21,208.0,9.24,12.41,47.59359,-54.27349
2022-08-24 10:34:00+00:00,209.0,7.43,211.0,8.37,12.41,47.59359,-54.27349
2022-08-24 10:44:00+00:00,208.0,7.91,209.0,8.88,12.41,47.59359,-54.27349
2022-08-24 10:54:00+00:00,209.0,8.29,208.0,9.22,12.41,47.59359,-54.27349
2022-08-24 11:04:00+00:00,209.0,8.32,213.0,9.42,12.41,47.59359,-54.27349
2022-08-24 11:14:01+00:00,209.0,9.98,210.0,11.14,12.89,47.59359,-54.27349
2022-08-24 11:24:01+00:00,211.0,8.82,212.0,10.51,12.89,47.59359,-54.27349
2022-08-24 11:34:01+00:00,212.0,8.14,213.0,8.89,12.89,47.59359,-54.27349
2022-08-24 11:44:01+00:00,211.0,8.55,208.0,9.86,12.89,47.59359,-54.27349
2022-08-24 11:54:01+00:00,209.0,9.55,208.0,11.16,12.89,47.59359,-54.27349
2022-08-24 12:04:01+00:00,211.0,8.94,210.0,10.36,12.89,47.59359,-54.27349
2022-08-24 12:14:00+00:00,210.0,8.55,206.0,10.9,13.21,47.59359,-54.27349
2022-08-24 12:24:00+00:00,208.0,7.62,204.0,8.73,13.21,47.59359,-54.27349
2022-08-24 12:34:00+00:00,204.0,8.67,206.0,9.51,13.21,47.59359,-54.27349
2022-08-24 12:44:00+00:00,210.0,8.37,210.0,9.6,13.21,47.59359,-54.27349
2022-08-24 12:54:00+00:00,216.0,7.95,217.0,9.58,13.21,47.59359,-54.27349
2022-08-24 13:04:00+00:00,214.0,7.27,213.0,8.03,13.21,47.59359,-54.27349
2022-08-24 13:14:00+00:00,217.0,7.72,216.0,8.36,13.68,47.59359,-54.27349
2022-08-24 13:24:00+00:00,221.0,6.66,220.0,7.34,13.68,47.59359,-54.27349
2022-08-24 13:34:00+00:00,218.0,7.32,220.0,8.02,13.68,47.59359,-54.27349
2022-08-24 13:44:00+00:00,215.0,7.03,218.0,8.25,13.68,47.59359,-54.27349
2022-08-24 13:54:00+00:00,210.0,7.12,212.0,7.63,13.68,47.59359,-54.27349
2022-08-24 14:04:00+00:00,207.0,8.23,210.0,9.15,13.68,47.59359,-54.27349
2022-08-24 14:14:01+00:00,211.0,9.3,212.0,10.05,14.08,47.59359,-54.27349
2022-08-24 14:24:01+00:00,212.0,8.77,216.0,9.43,14.08,47.59359,-54.27349
2022-08-24 14:34:01+00:00,213.0,8.76,213.0,9.77,14.08,47.59359,-54.27349
2022-08-24 14:44:01+00:00,212.0,10.62,214.0,11.89,14.08,47.59359,-54.27349
2022-08-24 14:54:01+00:00,213.0,10.21,212.0,11.26,14.08,47.59359,-54.27349
2022-08-24 15:04:01+00:00,215.0,9.93,212.0,11.2,14.08,47.59359,-54.27349
2022-08-24 15:14:00+00:00,213.0,10.42,215.0,11.65,13.92,47.59359,-54.27349
2022-08-24 15:24:00+00:00,215.0,8.32,218.0,9.59,13.92,47.59359,-54.27349
2022-08-24 15:34:00+00:00,218.0,8.87,217.0,10.06,13.92,47.59359,-54.27349
2022-08-24 15:44:00+00:00,216.0,8.04,216.0,9.01,13.92,47.59359,-54.27349
2022-08-24 15:54:00+00:00,218.0,8.38,225.0,9.77,13.92,47.59359,-54.27349
2022-08-24 16:04:00+00:00,219.0,7.96,216.0,8.74,13.92,47.59359,-54.27349
2022-08-24 16:14:01+00:00,217.0,8.77,221.0,10.07,13.92,47.59359,-54.27349
2022-08-24 16:24:01+00:00,214.0,9.41,219.0,10.18,13.92,47.59359,-54.27349
2022-08-24 16:34:01+00:00,210.0,10.03,210.0,11.38,13.92,47.59359,-54.27349
2022-08-24 16:44:01+00:00,208.0,10.09,210.0,11.33,13.92,47.59359,-54.27349
2022-08-24 16:54:01+00:00,206.0,10.01,204.0,11.02,13.92,47.59359,-54.27349
2022-08-24 17:04:01+00:00,207.0,9.96,207.0,11.48,13.92,47.59359,-54.27349
2022-08-24 17:14:01+00:00,207.0,10.14,209.0,11.31,13.68,47.59359,-54.27349
2022-08-24 17:24:01+00:00,205.0,9.5,205.0,10.25,13.68,47.59359,-54.27349
2022-08-24 17:34:01+00:00,205.0,9.35,206.0,10.82,13.68,47.59359,-54.27349
2022-08-24 17:44:01+00:00,203.0,9.87,203.0,10.82,13.68,47.59359,-54.27349
2022-08-24 17:54:01+00:00,203.0,9.48,203.0,10.7,13.68,47.59359,-54.27349
2022-08-24 18:04:01+00:00,204.0,9.22,201.0,10.08,13.68,47.59359,-54.27349
2022-08-24 18:14:00+00:00,205.0,9.62,208.0,10.5,13.68,47.59359,-54.27349
2022-08-24 18:24:00+00:00,205.0,9.3,207.0,10.15,13.68,47.59359,-54.27349
2022-08-24 18:34:00+00:00,205.0,9.85,204.0,11.07,13.68,47.59359,-54.27349
2022-08-24 18:44:00+00:00,206.0,8.71,208.0,9.71,13.68,47.59359,-54.27349
2022-08-24 18:54:00+00:00,203.0,9.63,205.0,10.36,13.68,47.59359,-54.27349
2022-08-24 19:04:00+00:00,206.0,9.45,208.0,10.55,13.68,47.59359,-54.27349
2022-08-24 19:14:00+00:00,207.0,8.96,211.0,10.14,13.68,47.59359,-54.27349
2022-08-24 19:24:00+00:00,207.0,7.73,220.0,8.56,13.68,47.59359,-54.27349
2022-08-24 19:34:00+00:00,207.0,8.63,207.0,9.58,13.68,47.59359,-54.27349
2022-08-24 19:44:00+00:00,206.0,8.56,201.0,9.86,13.68,47.59359,-54.27349
2022-08-24 19:54:00+00:00,208.0,8.59,208.0,9.34,13.68,47.59359,-54.27349
2022-08-24 20:04:00+00:00,211.0,8.05,210.0,9.07,13.68,47.59359,-54.27349
2022-08-24 20:14:01+00:00,213.0,7.74,213.0,8.28,13.29,47.59359,-54.27349
2022-08-24 20:24:01+00:00,213.0,7.12,214.0,7.85,13.29,47.59359,-54.27349
2022-08-24 20:34:01+00:00,211.0,7.32,214.0,8.02,13.29,47.59359,-54.27349
2022-08-24 20:44:01+00:00,212.0,7.01,213.0,7.7,13.29,47.59359,-54.27349
2022-08-24 20:54:01+00:00,214.0,6.67,215.0,7.3,13.29,47.59359,-54.27349
2022-08-24 21:04:01+00:00,215.0,6.88,216.0,7.48,13.29,47.59359,-54.27349
2022-08-24 21:14:00+00:00,210.0,7.22,214.0,7.83,13.13,47.59359,-54.27349
2022-08-24 21:24:00+00:00,225.0,6.12,220.0,7.07,13.13,47.59359,-54.27349
2022-08-24 21:34:00+00:00,220.0,7.04,227.0,7.97,13.13,47.59359,-54.27349
2022-08-24 21:44:00+00:00,227.0,6.08,229.0,6.93,13.13,47.59359,-54.27349
2022-08-24 21:54:00+00:00,219.0,6.19,214.0,7.24,13.13,47.59359,-54.27349
2022-08-24 22:04:00+00:00,215.0,6.86,218.0,7.69,13.13,47.59359,-54.27349
2022-08-24 22:14:00+00:00,211.0,7.33,211.0,8.0,12.73,47.59359,-54.27349
2022-08-24 22:24:00+00:00,215.0,6.8,217.0,7.61,12.73,47.59359,-54.27349
2022-08-24 22:34:00+00:00,216.0,6.83,218.0,7.72,12.73,47.59359,-54.27349
2022-08-24 22:44:00+00:00,217.0,6.0,218.0,6.62,12.73,47.59359,-54.27349
2022-08-24 22:54:00+00:00,218.0,5.82,219.0,6.59,12.73,47.59359,-54.27349
2022-08-24 23:04:00+00:00,233.0,5.87,235.0,6.84,12.73,47.59359,-54.27349
2022-08-24 23:14:01+00:00,214.0,6.55,218.0,7.48,12.49,47.59359,-54.27349
2022-08-24 23:24:01+00:00,219.0,6.4,225.0,7.5,12.49,47.59359,-54.27349
2022-08-24 23:34:01+00:00,217.0,7.5,221.0,8.44,12.49,47.59359,-54.27349
2022-08-24 23:44:01+00:00,216.0,7.06,222.0,8.0,12.49,47.59359,-54.27349
2022-08-24 23:54:01+00:00,217.0,6.74,226.0,7.57,12.49,47.59359,-54.27349
